PRBJA SBLO-SBPF

Flight info

Callsign PRBJA
Flight time 0h 56m
Altitude 34000
Route SIGAR DCT BOGEL DCT ESNOG DCT BIVUB
Aircraft E55P/L-L/2000

Departure

Time 2026-04-12 19:27
Airport Governor José Richa Airport (SBLO)

Arrival

Time 2026-04-12 20:23
Airport Lauro Kurtz Airport (SBPF)
Time Latitude Longitude Altitude Speed Heading
2026-04-12 19:01 -23.32725 -51.14081 1865 ft 0 kts 124°
2026-04-12 19:16 -23.32726 -51.14081 1865 ft 0 kts 124°
2026-04-12 19:16 -23.32726 -51.14080 1865 ft 1 kts 121°
2026-04-12 19:17 -23.32723 -51.14042 1864 ft 9 kts 130°
2026-04-12 19:17 -23.32797 -51.13957 1864 ft 19 kts 135°
2026-04-12 19:17 -23.32924 -51.13917 1864 ft 16 kts 175°
2026-04-12 19:17 -23.32966 -51.13930 1864 ft 0 kts 204°
2026-04-12 19:18 -23.32986 -51.13940 1864 ft 8 kts 204°
2026-04-12 19:18 -23.33047 -51.13937 1864 ft 0 kts 108°
2026-04-12 19:18 -23.33102 -51.13773 1864 ft 59 kts 109°
2026-04-12 19:19 -23.33149 -51.13137 1846 ft 96 kts 119°
2026-04-12 19:19 -23.32725 -51.14082 1865 ft 0 kts 124°
2026-04-12 19:24 -23.32726 -51.14080 1865 ft 0 kts 112°
2026-04-12 19:24 -23.32727 -51.14074 1865 ft 1 kts 85°
2026-04-12 19:24 -23.32721 -51.14063 1865 ft 2 kts 56°
2026-04-12 19:25 -23.32737 -51.14027 1864 ft 9 kts 138°
2026-04-12 19:25 -23.32796 -51.13958 1864 ft 14 kts 133°
2026-04-12 19:25 -23.32907 -51.13925 1864 ft 18 kts 162°
2026-04-12 19:25 -23.32981 -51.13829 1864 ft 17 kts 109°
2026-04-12 19:26 -23.33021 -51.13715 1864 ft 12 kts 116°
2026-04-12 19:26 -23.33092 -51.13714 1864 ft 11 kts 200°
2026-04-12 19:26 -23.33151 -51.13628 1863 ft 33 kts 109°
2026-04-12 19:26 -23.33318 -51.13133 1849 ft 107 kts 111°
2026-04-12 19:27 -23.33645 -51.12160 2005 ft 157 kts 111°
2026-04-12 19:27 -23.34029 -51.11010 2862 ft 164 kts 110°
2026-04-12 19:27 -23.34472 -51.09696 3084 ft 216 kts 110°
2026-04-12 19:27 -23.35050 -51.07979 3512 ft 259 kts 110°
2026-04-12 19:28 -23.35776 -51.06193 4695 ft 268 kts 123°
2026-04-12 19:28 -23.37291 -51.04990 5736 ft 278 kts 160°
2026-04-12 19:28 -23.39196 -51.04869 6517 ft 287 kts 191°
2026-04-12 19:28 -23.41080 -51.05564 7380 ft 291 kts 204°
2026-04-12 19:29 -23.42897 -51.06566 8259 ft 294 kts 209°
2026-04-12 19:29 -23.44564 -51.07626 9451 ft 283 kts 211°
2026-04-12 19:29 -23.46258 -51.08761 10205 ft 289 kts 213°
2026-04-12 19:29 -23.47959 -51.09933 11000 ft 293 kts 213°
2026-04-12 19:30 -23.49699 -51.11145 11776 ft 298 kts 214°
2026-04-12 19:30 -23.51425 -51.12353 12526 ft 302 kts 214°
2026-04-12 19:30 -23.53193 -51.13593 13329 ft 304 kts 214°
2026-04-12 19:30 -23.54707 -51.15171 14074 ft 303 kts 240°
2026-04-12 19:31 -23.55751 -51.17165 14857 ft 304 kts 242°
2026-04-12 19:31 -23.56789 -51.19147 15605 ft 307 kts 242°
2026-04-12 19:31 -23.57851 -51.21175 16342 ft 309 kts 242°
2026-04-12 19:31 -23.58910 -51.23196 17053 ft 311 kts 242°
2026-04-12 19:32 -23.59985 -51.25248 17754 ft 313 kts 242°
2026-04-12 19:32 -23.61066 -51.27311 18348 ft 319 kts 243°
2026-04-12 19:32 -23.62200 -51.29482 18345 ft 343 kts 242°
2026-04-12 19:32 -23.63405 -51.31786 18647 ft 355 kts 242°
2026-04-12 19:33 -23.64621 -51.34107 19276 ft 357 kts 242°
2026-04-12 19:33 -23.65863 -51.36480 19897 ft 359 kts 243°
2026-04-12 19:33 -23.67092 -51.38831 20486 ft 362 kts 243°
2026-04-12 19:33 -23.68333 -51.41208 21057 ft 364 kts 243°
2026-04-12 19:34 -23.69598 -51.43631 21632 ft 366 kts 243°
2026-04-12 19:34 -23.70860 -51.46048 22159 ft 369 kts 243°
2026-04-12 19:34 -23.72126 -51.48473 22699 ft 370 kts 243°
2026-04-12 19:34 -23.73383 -51.50884 23283 ft 370 kts 243°
2026-04-12 19:35 -23.74656 -51.53326 23744 ft 374 kts 244°
2026-04-12 19:35 -23.75936 -51.55785 24320 ft 373 kts 244°
2026-04-12 19:35 -23.77220 -51.58249 24950 ft 371 kts 244°
2026-04-12 19:35 -23.78474 -51.60659 25553 ft 369 kts 244°
2026-04-12 19:36 -23.79738 -51.63087 26150 ft 367 kts 244°
2026-04-12 19:36 -23.80993 -51.65502 26742 ft 365 kts 245°
2026-04-12 19:36 -23.82236 -51.67894 27334 ft 362 kts 245°
2026-04-12 19:36 -23.83478 -51.70284 27898 ft 361 kts 245°
2026-04-12 19:37 -23.84698 -51.72635 28472 ft 358 kts 245°
2026-04-12 19:37 -23.85919 -51.74989 29018 ft 357 kts 246°
2026-04-12 19:37 -23.87135 -51.77334 29543 ft 355 kts 246°
2026-04-12 19:37 -23.88346 -51.79669 30047 ft 354 kts 246°
2026-04-12 19:38 -23.89558 -51.82009 30593 ft 351 kts 246°
2026-04-12 19:38 -23.90749 -51.84309 31054 ft 351 kts 246°
2026-04-12 19:38 -23.91943 -51.86616 31566 ft 348 kts 246°
2026-04-12 19:38 -23.93139 -51.88927 32028 ft 347 kts 247°
2026-04-12 19:39 -23.94308 -51.91189 32478 ft 346 kts 247°
2026-04-12 19:39 -23.95499 -51.93494 32942 ft 344 kts 247°
2026-04-12 19:39 -23.96271 -51.94984 33410 ft 337 kts 248°
2026-04-12 19:39 -23.97783 -51.97910 34057 ft 334 kts 248°
2026-04-12 19:40 -23.98922 -52.00130 34060 ft 345 kts 248°
2026-04-12 19:40 -24.01335 -52.04817 34052 ft 359 kts 248°
2026-04-12 19:41 -24.03844 -52.09648 34046 ft 375 kts 244°
2026-04-12 19:41 -24.05764 -52.11681 34047 ft 402 kts 220°
2026-04-12 19:41 -24.08436 -52.12797 34045 ft 430 kts 198°
2026-04-12 19:42 -24.14501 -52.13387 34044 ft 445 kts 193°
2026-04-12 19:42 -24.20715 -52.14061 34045 ft 454 kts 193°
2026-04-12 19:43 -24.30209 -52.15163 34045 ft 463 kts 193°
2026-04-12 19:43 -24.36598 -52.15916 34045 ft 465 kts 193°
2026-04-12 19:44 -24.43023 -52.16676 34045 ft 466 kts 193°
2026-04-12 19:44 -24.49453 -52.17439 34044 ft 465 kts 193°
2026-04-12 19:45 -24.55878 -52.18201 34045 ft 466 kts 193°
2026-04-12 19:45 -24.62267 -52.18962 34046 ft 466 kts 193°
2026-04-12 19:46 -24.68712 -52.19730 34060 ft 465 kts 193°
2026-04-12 19:46 -24.75122 -52.20494 34093 ft 465 kts 193°
2026-04-12 19:47 -24.81525 -52.21257 34134 ft 464 kts 193°
2026-04-12 19:47 -24.87937 -52.22022 34167 ft 464 kts 193°
2026-04-12 19:48 -24.94327 -52.22786 34195 ft 463 kts 193°
2026-04-12 19:48 -25.00736 -52.23550 34209 ft 464 kts 194°
2026-04-12 19:49 -25.07143 -52.24315 34210 ft 466 kts 194°
2026-04-12 19:49 -25.13609 -52.25090 34203 ft 469 kts 195°
2026-04-12 19:50 -25.20071 -52.25870 34202 ft 469 kts 195°
2026-04-12 19:50 -25.26536 -52.26649 34203 ft 470 kts 195°
2026-04-12 19:51 -25.32950 -52.27656 34204 ft 464 kts 199°
2026-04-12 19:51 -25.39261 -52.28997 34203 ft 464 kts 199°
2026-04-12 19:52 -25.45564 -52.30329 34204 ft 464 kts 199°
2026-04-12 19:52 -25.51884 -52.31663 34204 ft 464 kts 199°
2026-04-12 19:53 -25.58240 -52.33007 34204 ft 464 kts 199°
2026-04-12 19:53 -25.64589 -52.34349 34205 ft 465 kts 199°
2026-04-12 19:54 -25.70902 -52.35686 34205 ft 464 kts 199°
2026-04-12 19:54 -25.77202 -52.37020 34205 ft 462 kts 199°
2026-04-12 19:55 -25.83478 -52.38352 34196 ft 460 kts 200°
2026-04-12 19:55 -25.89764 -52.39687 34186 ft 460 kts 200°
2026-04-12 19:56 -25.96047 -52.41023 34180 ft 460 kts 200°
2026-04-12 19:56 -26.02302 -52.42355 34180 ft 460 kts 200°
2026-04-12 19:57 -26.08572 -52.43691 34180 ft 460 kts 200°
2026-04-12 19:57 -26.14811 -52.45022 34172 ft 459 kts 200°
2026-04-12 19:58 -26.21070 -52.46358 34172 ft 459 kts 200°
2026-04-12 19:58 -26.27349 -52.47700 34172 ft 459 kts 200°
2026-04-12 19:59 -26.33571 -52.49032 34173 ft 458 kts 200°
2026-04-12 19:59 -26.39808 -52.50368 34173 ft 458 kts 200°
2026-04-12 20:00 -26.46083 -52.51714 34174 ft 458 kts 200°
2026-04-12 20:00 -26.52309 -52.53051 34174 ft 459 kts 200°
2026-04-12 20:01 -26.58565 -52.54396 34174 ft 459 kts 200°
2026-04-12 20:01 -26.64823 -52.55743 34175 ft 459 kts 200°
2026-04-12 20:02 -26.71050 -52.57084 34175 ft 459 kts 200°
2026-04-12 20:02 -26.77327 -52.58438 34173 ft 459 kts 200°
2026-04-12 20:03 -26.80455 -52.59114 33948 ft 459 kts 199°
2026-04-12 20:03 -26.83530 -52.59776 33250 ft 448 kts 199°
2026-04-12 20:03 -26.86547 -52.60430 32458 ft 440 kts 199°
2026-04-12 20:03 -26.89518 -52.61073 31787 ft 430 kts 199°
2026-04-12 20:04 -26.92476 -52.61710 31211 ft 433 kts 199°
2026-04-12 20:04 -26.95404 -52.62344 30645 ft 435 kts 199°
2026-04-12 20:04 -26.98398 -52.62993 30068 ft 435 kts 199°
2026-04-12 20:04 -27.01319 -52.63625 29505 ft 432 kts 200°
2026-04-12 20:05 -27.04278 -52.64266 28936 ft 429 kts 200°
2026-04-12 20:05 -27.07159 -52.64894 28382 ft 427 kts 199°
2026-04-12 20:05 -27.10076 -52.65530 27832 ft 424 kts 200°
2026-04-12 20:05 -27.12983 -52.66067 27245 ft 431 kts 190°
2026-04-12 20:06 -27.15987 -52.65601 26689 ft 441 kts 171°
2026-04-12 20:06 -27.18924 -52.64743 26125 ft 439 kts 169°
2026-04-12 20:06 -27.21876 -52.63866 25551 ft 437 kts 169°
2026-04-12 20:06 -27.24785 -52.63005 24982 ft 434 kts 169°
2026-04-12 20:07 -27.27686 -52.62149 24412 ft 432 kts 169°
2026-04-12 20:07 -27.30583 -52.61295 23840 ft 429 kts 168°
2026-04-12 20:07 -27.33425 -52.60457 23278 ft 426 kts 168°
2026-04-12 20:07 -27.36257 -52.59622 22718 ft 423 kts 168°
2026-04-12 20:08 -27.39110 -52.58781 22152 ft 419 kts 168°
2026-04-12 20:08 -27.41918 -52.57953 21575 ft 416 kts 168°
2026-04-12 20:08 -27.44742 -52.57659 20859 ft 411 kts 184°
2026-04-12 20:08 -27.47595 -52.57675 20223 ft 408 kts 184°
2026-04-12 20:09 -27.50404 -52.57707 19629 ft 404 kts 184°
2026-04-12 20:09 -27.53185 -52.57740 19062 ft 399 kts 183°
2026-04-12 20:09 -27.55935 -52.57774 18516 ft 394 kts 183°
2026-04-12 20:09 -27.58643 -52.57808 17987 ft 389 kts 183°
2026-04-12 20:10 -27.61353 -52.57842 17465 ft 384 kts 182°
2026-04-12 20:10 -27.63970 -52.57875 16964 ft 379 kts 182°
2026-04-12 20:10 -27.66598 -52.57909 16464 ft 374 kts 182°
2026-04-12 20:10 -27.69177 -52.57942 15975 ft 369 kts 182°
2026-04-12 20:11 -27.71716 -52.57974 15495 ft 364 kts 182°
2026-04-12 20:11 -27.74196 -52.58006 15028 ft 355 kts 182°
2026-04-12 20:11 -27.76633 -52.58037 14573 ft 343 kts 182°
2026-04-12 20:11 -27.78972 -52.58067 14140 ft 332 kts 181°
2026-04-12 20:12 -27.81246 -52.58096 13720 ft 323 kts 181°
2026-04-12 20:12 -27.83443 -52.58123 13315 ft 314 kts 181°
2026-04-12 20:12 -27.85583 -52.58150 12919 ft 306 kts 181°
2026-04-12 20:12 -27.87690 -52.58177 12529 ft 298 kts 181°
2026-04-12 20:13 -27.89727 -52.58203 12151 ft 292 kts 181°
2026-04-12 20:13 -27.91716 -52.58228 11780 ft 286 kts 181°
2026-04-12 20:13 -27.95623 -52.58278 11053 ft 276 kts 181°
2026-04-12 20:14 -27.97514 -52.58302 10700 ft 271 kts 181°
2026-04-12 20:14 -27.99367 -52.58326 10354 ft 267 kts 181°
2026-04-12 20:14 -28.01221 -52.58350 10007 ft 264 kts 181°
2026-04-12 20:14 -28.03032 -52.58374 9667 ft 260 kts 181°
2026-04-12 20:15 -28.04821 -52.58397 9331 ft 257 kts 181°
2026-04-12 20:15 -28.06607 -52.58479 9030 ft 253 kts 187°
2026-04-12 20:15 -28.08325 -52.58706 8689 ft 251 kts 178°
2026-04-12 20:15 -28.10045 -52.58597 8367 ft 248 kts 179°
2026-04-12 20:16 -28.11782 -52.58553 8031 ft 247 kts 180°
2026-04-12 20:16 -28.13490 -52.58543 7703 ft 245 kts 181°
2026-04-12 20:16 -28.15183 -52.58548 7379 ft 243 kts 181°
2026-04-12 20:16 -28.16866 -52.58562 7058 ft 242 kts 181°
2026-04-12 20:17 -28.18526 -52.58580 6742 ft 240 kts 181°
2026-04-12 20:17 -28.20189 -52.58599 6425 ft 239 kts 182°
2026-04-12 20:17 -28.21852 -52.58620 6106 ft 238 kts 182°
2026-04-12 20:17 -28.23440 -52.58304 5764 ft 238 kts 151°
2026-04-12 20:18 -28.24739 -52.57135 5419 ft 237 kts 140°
2026-04-12 20:18 -28.25987 -52.55917 5058 ft 238 kts 139°
2026-04-12 20:18 -28.27231 -52.54690 4693 ft 239 kts 139°
2026-04-12 20:18 -28.28451 -52.53479 4334 ft 220 kts 139°
2026-04-12 20:19 -28.29532 -52.52404 4062 ft 202 kts 139°
2026-04-12 20:19 -28.30323 -52.51175 4062 ft 187 kts 102°
2026-04-12 20:19 -28.30198 -52.49800 4078 ft 175 kts 69°
2026-04-12 20:19 -28.29806 -52.48535 4070 ft 165 kts 69°
2026-04-12 20:20 -28.29422 -52.47342 4058 ft 156 kts 68°
2026-04-12 20:20 -28.29045 -52.46201 4121 ft 146 kts 67°
2026-04-12 20:20 -28.28684 -52.45130 4032 ft 145 kts 67°
2026-04-12 20:20 -28.28320 -52.44061 4034 ft 143 kts 67°
2026-04-12 20:21 -28.27972 -52.43048 4017 ft 135 kts 66°
2026-04-12 20:21 -28.27628 -52.42063 3962 ft 133 kts 66°
2026-04-12 20:21 -28.27272 -52.41070 3871 ft 140 kts 66°
2026-04-12 20:21 -28.26891 -52.40006 3728 ft 149 kts 66°
2026-04-12 20:22 -28.26499 -52.38913 3544 ft 151 kts 66°
2026-04-12 20:22 -28.26106 -52.37817 3335 ft 142 kts 66°
2026-04-12 20:22 -28.25749 -52.36818 3131 ft 131 kts 66°
2026-04-12 20:22 -28.25448 -52.35847 2827 ft 131 kts 69°
2026-04-12 20:23 -28.25145 -52.34887 2565 ft 128 kts 66°
2026-04-12 20:23 -28.24815 -52.33962 2426 ft 124 kts 66°
2026-04-12 20:23 -28.24509 -52.33092 2379 ft 110 kts 66°
2026-04-12 20:23 -28.24344 -52.32593 2378 ft 21 kts 58°
2026-04-12 20:24 -28.24342 -52.32624 2378 ft 7 kts 240°
2026-04-12 20:24 -28.24368 -52.32678 2378 ft 8 kts 241°
2026-04-12 20:24 -28.24395 -52.32748 2378 ft 10 kts 248°
2026-04-12 20:24 -28.24424 -52.32833 2378 ft 12 kts 249°
2026-04-12 20:25 -28.24437 -52.32891 2378 ft 7 kts 306°
2026-04-12 20:25 -28.24393 -52.32916 2378 ft 7 kts 334°
2026-04-12 20:25 -28.24339 -52.32934 2378 ft 8 kts 30°
2026-04-12 20:25 -28.24298 -52.32881 2378 ft 9 kts 67°
2026-04-12 20:26 -28.24270 -52.32803 2378 ft 11 kts 69°
2026-04-12 20:26 -28.24243 -52.32743 2378 ft 5 kts 11°
2026-04-12 20:26 -28.24213 -52.32772 2378 ft 3 kts 288°
2026-04-12 20:26 -28.24210 -52.32781 2378 ft 0 kts 288°